Regional Weather Roundup
Issued by NWS

Home | Current Version | Previous Version | Graphics & Text | Print | Product List | Glossary On
Versions: 1 2 3 4 5 6 7 8 9 10 11 12 13 14 15 16 17 18 19 20 21 22 23 24 25 26 27
000
ASUS45 KCYS 261910
RWRWY

WYOMING REGIONAL WEATHER ROUNDUP
NATIONAL WEATHER SERVICE CHEYENNE WY
100 PM MDT SAT MAY 26 2018

NOTE:  "FAIR" INDICATES FEW OR NO CLOUDS BELOW 12,000 FEET
WITH NO SIGNIFICANT WEATHER AND/OR OBSTRUCTIONS TO VISIBILITY.

WYZ001-262000-
YELLOWSTONE NATIONAL PARK

CITY           SKY/WX    TMP DP  RH WIND       PRES   REMARKS
LK YELLOWSTONE   N/A     61  35  37 SE5       30.04F
W YELLOWSTONE  NOT AVBL

$$
WYZ002>013-054>058-071-098>099-262000-
NORTHERN WYOMING

CITY           SKY/WX    TMP DP  RH WIND       PRES   REMARKS
JACKSON        FAIR      71  39  31 S6        29.93F
CODY           FAIR      78  46  32 SE9       29.84F
GREYBULL       FAIR      83  49  30 SE8G17    29.76F
WORLAND        FAIR      81  49  32 W6        29.78F
SHERIDAN       FAIR      79  59  50 NW7       29.77F
BUFFALO        FAIR      82  56  40 N20       29.80S
GILLETTE       FAIR      90  38  16 SW21G29   29.77F
NEWCASTLE      FAIR      81  50  34 S15G24    29.84F

$$
WYZ014>020-022>026-101>103-262000-
CENTRAL WYOMING

CITY           SKY/WX    TMP DP  RH WIND       PRES   REMARKS
BIG PINEY      FAIR      75  23  14 SW15G21   29.95F
PINEDALE       FAIR      73  23  15 SE17G25   29.96F
DUBOIS         FAIR      70  39  32 E15       29.96S
LANDER         FAIR      80  42  25 SE20G29   29.84F
RIVERTON       FAIR      82  28  14 S20       29.85F
CASPER         FAIR      85  28  12 SW16      29.86F
DOUGLAS        FAIR      86  47  25 SE9       29.86F

$$
WYZ021-027>030-104>119-262000-
SOUTHERN WYOMING

CITY           SKY/WX    TMP DP  RH WIND       PRES   REMARKS
EVANSTON       FAIR      69  30  23 SW8       29.95F
FORT BRIDGER   FAIR      74  22  14 SE7       29.96F
ROCK SPRINGS   FAIR      77  12   8 S25G36    29.93F
DIXON          FAIR      82  15   8 S16G31    29.99F
RAWLINS        FAIR      81  15   8 SW17G32   29.97F
SARATOGA       FAIR      82  12   7 SW21G30   29.99F
LARAMIE        FAIR      82  14   8 SW15G24   30.00F
CHEYENNE       FAIR      83  35  18 E6        29.96F
TORRINGTON     FAIR      85  47  26 CALM      29.82F
PINE BLUFFS    FAIR      84  32  15 NE7       29.90F

$$




USA.gov is the U.S. government's official web portal to all federal, state and local government web resources and services.